Date String (YYYY-MM-DD hh:mm:ss) UTC,Instrument flags,Ambient pressure (hPa),Sample flow (lpm),Bypass flow (lpm),Sample temperature (°C),Ambient temperature (°C),ASC tube jacket temperature (°C),LED temperature (°C),Box temperature (°C),Sample RH (%),Span deviation,Mass concentration (μg/m³),Mass concentration (μg/m³),Mass concentration (μg/m³)
DateTimeUTC,F1_M11,P_M11,Q1_M11,Q2_M11,T1_M11,T2_M11,T3_M11,T4_M11,T5_M11,U1_M11,ZSPAN_M11,X0_M11,X2_M11,X1_M11
2022-08-07 14:00:00,,0830.1,5.00,0.00,31.2,28.1,00.0,39.5,32.2,34.3,0000.0,0010.97,0006.51,0005.58
2022-08-07 14:01:00,,0830.1,4.99,0.00,31.1,27.8,00.0,39.5,32.1,34.6,0000.4,0011.05,0006.52,0005.58
2022-08-07 14:02:00,,0830.2,5.01,0.00,31.0,27.7,00.0,39.5,32.0,34.9,0000.2,0011.22,0006.50,0005.57
2022-08-07 14:03:00,,0830.1,5.01,0.00,31.0,27.8,00.0,39.5,32.0,35.1,0000.2,0011.41,0006.45,0005.54
2022-08-07 14:04:00,,0830.2,4.99,0.00,31.1,27.9,00.0,39.5,32.1,34.6,0000.2,0011.65,0006.43,0005.52
2022-08-07 14:05:00,,0830.2,5.00,0.00,31.2,28.1,00.0,39.4,32.1,34.7,0000.0,0011.73,0006.42,0005.48
2022-08-07 14:06:00,,0830.3,4.99,0.00,31.2,28.2,00.0,39.4,32.1,35.0,-000.2,0011.69,0006.42,0005.46
2022-08-07 14:07:00,,0830.3,5.00,0.00,31.3,28.4,00.0,39.5,32.2,34.7,0000.2,0011.58,0006.39,0005.46
2022-08-07 14:08:00,,0830.3,5.00,0.00,31.3,28.5,00.0,39.5,32.2,34.4,0000.7,0011.64,0006.38,0005.46
2022-08-07 14:09:00,,0830.3,5.00,0.00,31.3,28.6,00.0,39.5,32.2,34.4,0001.2,0011.79,0006.38,0005.47
2022-08-07 14:10:00,,0830.3,4.99,0.00,31.3,28.7,00.0,39.5,32.2,34.6,0000.4,0012.39,0006.39,0005.49
2022-08-07 14:11:00,,0830.2,5.01,0.00,31.3,28.8,00.0,39.6,32.3,34.3,0000.0,0012.33,0006.38,0005.47
2022-08-07 14:12:00,,0830.2,5.00,0.00,31.3,28.9,00.0,39.6,32.3,34.6,0000.0,0012.65,0006.32,0005.44
2022-08-07 14:13:00,,0830.2,5.00,0.00,31.2,29.0,00.0,39.6,32.3,34.6,0000.0,0012.44,0006.28,0005.41
2022-08-07 14:14:00,,0830.2,5.02,0.00,31.3,29.0,00.0,39.6,32.4,35.1,0000.0,0011.74,0006.27,0005.41
2022-08-07 14:15:00,,0830.1,5.00,0.00,31.4,28.8,00.0,39.6,32.4,34.8,0000.0,0011.55,0006.29,0005.39
2022-08-07 14:16:00,,0830.1,5.00,0.00,31.4,28.1,00.0,39.6,32.2,34.6,0000.0,0011.73,0006.30,0005.39
2022-08-07 14:17:00,,0830.1,5.00,0.00,31.4,27.8,00.0,39.6,32.1,34.6,0000.0,0011.87,0006.28,0005.39
2022-08-07 14:18:00,,0830.1,5.00,0.00,31.3,27.7,00.0,39.6,32.1,34.8,0000.0,0012.07,0006.31,0005.37
2022-08-07 14:19:00,,0830.1,5.00,0.00,31.2,27.8,00.0,39.5,32.0,35.0,0000.0,0012.04,0006.31,0005.37
2022-08-07 14:20:00,,0830.1,4.99,0.00,31.2,27.9,00.0,39.5,32.1,35.3,0000.0,0012.01,0006.30,0005.35
2022-08-07 14:21:00,,0830.1,5.00,0.00,31.4,28.1,00.0,39.5,32.3,34.9,0000.0,0011.91,0006.29,0005.34
2022-08-07 14:22:00,,0830.1,4.99,0.00,31.7,28.2,00.0,39.5,32.3,34.3,0000.0,0012.38,0006.29,0005.34
2022-08-07 14:23:00,,0830.1,5.01,0.00,31.7,28.4,00.0,39.6,32.3,34.3,0000.0,0012.08,0006.31,0005.36
2022-08-07 14:24:00,,0830.1,5.00,0.00,31.8,28.5,00.0,39.6,32.3,34.2,0000.0,0012.00,0006.35,0005.37
2022-08-07 14:25:00,,0830.2,5.00,0.00,31.8,28.6,00.0,39.7,32.3,34.1,0000.0,0012.14,0006.40,0005.41
2022-08-07 14:26:00,,0830.1,5.00,0.00,31.8,28.7,00.0,39.7,32.3,34.2,0000.0,0012.37,0006.44,0005.46
2022-08-07 14:27:00,,0830.2,5.01,0.00,31.7,28.8,00.0,39.8,32.4,34.3,0000.0,0012.33,0006.41,0005.48
2022-08-07 14:28:00,,0830.2,5.00,0.00,31.7,28.9,00.0,39.8,32.4,34.3,0000.0,0012.40,0006.41,0005.50
2022-08-07 14:29:00,,0830.2,5.00,0.00,31.7,29.0,00.0,39.8,32.4,34.3,0000.0,0012.33,0006.40,0005.53
2022-08-07 14:30:00,,0830.3,4.99,0.00,31.7,29.0,00.0,39.9,32.4,34.6,0000.0,0012.22,0006.38,0005.52
2022-08-07 14:31:00,,0830.2,5.01,0.00,31.6,28.4,00.0,39.8,32.3,34.9,0000.0,0012.37,0006.43,0005.52
2022-08-07 14:32:00,,0830.1,5.01,0.00,31.6,27.9,00.0,39.8,32.3,35.2,0000.0,0012.29,0006.45,0005.53
2022-08-07 14:33:00,,0830.2,5.01,0.00,31.8,27.7,00.0,39.8,32.4,34.7,0000.0,0012.16,0006.46,0005.55
2022-08-07 14:34:00,,0830.1,4.98,0.00,31.8,27.8,00.0,39.8,32.3,34.3,0000.0,0013.04,0006.51,0005.58
2022-08-07 14:35:00,,0830.3,5.00,0.00,31.8,27.9,00.0,39.8,32.3,34.7,0000.0,0013.10,0006.51,0005.58
2022-08-07 14:36:00,,0830.2,5.01,0.00,31.8,28.0,00.0,39.8,32.3,34.5,0000.0,0012.97,0006.50,0005.57
2022-08-07 14:37:00,,0830.3,4.99,0.00,31.7,28.2,00.0,39.8,32.3,34.3,0000.0,0012.80,0006.50,0005.56
2022-08-07 14:38:00,,0830.2,5.00,0.00,31.7,28.3,00.0,39.8,32.3,34.7,0000.0,0013.24,0006.56,0005.59
2022-08-07 14:39:00,,0830.3,5.02,0.00,31.7,28.5,00.0,39.8,32.3,35.0,0000.0,0013.03,0006.63,0005.61
2022-08-07 14:40:00,,0830.3,4.98,0.00,31.7,28.6,00.0,39.9,32.4,34.7,0000.0,0013.25,0006.64,0005.62
2022-08-07 14:41:00,,0830.3,5.00,0.00,31.8,28.7,00.0,39.9,32.5,34.4,0000.0,0013.27,0006.65,0005.64
2022-08-07 14:42:00,,0830.4,5.00,0.00,31.9,28.8,00.0,39.9,32.5,34.6,-000.1,0013.14,0006.64,0005.66
2022-08-07 14:43:00,,0830.4,4.99,0.00,31.9,28.9,00.0,39.9,32.5,34.6,-000.2,0012.63,0006.61,0005.68
2022-08-07 14:44:00,,0830.4,5.00,0.00,31.8,29.0,00.0,39.9,32.5,34.3,-000.6,0012.29,0006.64,0005.71
2022-08-07 14:45:00,,0830.4,5.00,0.00,31.8,28.9,00.0,40.0,32.5,34.1,-000.6,0011.41,0006.66,0005.73
2022-08-07 14:46:00,,0830.4,5.00,0.00,31.8,28.3,00.0,39.9,32.3,34.3,-001.0,0011.76,0006.73,0005.78
2022-08-07 14:47:00,,0830.4,4.99,0.00,31.7,27.8,00.0,39.9,32.2,34.7,-000.4,0012.25,0006.75,0005.80
2022-08-07 14:48:00,,0830.4,5.02,0.00,31.6,27.7,00.0,39.9,32.2,34.9,-000.6,0012.30,0006.77,0005.79
2022-08-07 14:49:00,,0830.4,4.98,0.00,31.6,27.8,00.0,39.9,32.2,34.5,-000.1,0011.91,0006.78,0005.79
2022-08-07 14:50:00,,0830.4,5.00,0.00,31.5,27.9,00.0,39.8,32.2,34.7,-000.4,0011.79,0006.77,0005.79
2022-08-07 14:51:00,,0830.4,4.99,0.00,31.5,28.0,00.0,39.8,32.2,35.1,0000.1,0011.59,0006.77,0005.78
2022-08-07 14:52:00,,0830.3,5.00,0.00,31.6,28.2,00.0,39.8,32.3,35.2,0000.7,0011.69,0006.80,0005.79
2022-08-07 14:53:00,,0830.5,5.00,0.00,31.9,28.3,00.0,39.8,32.5,34.9,0001.0,0011.84,0006.83,0005.79
2022-08-07 14:54:00,,0830.5,5.01,0.00,32.1,28.5,00.0,39.8,32.6,34.2,0001.7,0012.11,0006.90,0005.78
2022-08-07 14:55:00,,0830.5,4.99,0.00,32.2,28.6,00.0,39.9,32.5,34.0,0002.1,0012.44,0006.95,0005.78
2022-08-07 14:56:00,,0830.6,5.02,0.00,32.2,28.7,00.0,39.9,32.5,34.0,0002.0,0012.88,0006.95,0005.76
2022-08-07 14:57:00,,0830.5,5.00,0.00,32.2,28.8,00.0,40.0,32.5,33.7,0001.8,0012.61,0006.91,0005.74
2022-08-07 14:58:00,,0830.5,4.99,0.00,32.2,28.9,00.0,40.0,32.5,34.3,0001.4,0012.23,0006.89,0005.74
2022-08-07 14:59:00,,0830.6,5.00,0.00,32.2,28.9,00.0,40.1,32.5,34.8,0001.4,0012.31,0006.89,0005.75
